KJQFKCHS

Guest
Details From KJQF - Concord Rgnl
To KCHS - Charleston AFB Intl
Flight Number -
Tags generated
Created
Modified
Stats Distance 153 nm / 284 km
Max Altitude 9,600 ft / 2,926 m
Waypoints 3
Social Downloads 0
Likes 0
Share VATSIM

Download

Looking for another format? Having issues loading an existing format? Contact us
Advertisement - Login to hide

Notes

Basic altitude profile: - Ascent Rate: 2500ft/min - Ascent Speed: 250kts - Cruise Altitude: 2800000ft - Cruise Speed: 400kts - Descent Rate: 1500ft/min - Descent Speed: 250kts Options: - Use NATs: yes - Use PACOTS: yes - Use low airways: yes - Use high airways: yes

Route

KJQF MADLY KCHS

ID Type Via Altitude Latitude Longitude Leg Dist Tot Dist Heading (true) Name
O KJQF APT - 0 ft / 0 m 35.38777˚ -80.70913˚ - 0 nm - Concord Rgnl
MADLY FIX - 9,600 ft / 2,926 m 33.71550˚ -80.19944˚ 103 nm 103 nm 166° / 166° -
O KCHS APT - 0 ft / 0 m 32.89808˚ -80.04056˚ 49 nm 153 nm 171° / 171° Charleston AFB Intl

Altitude Profile

Advertisement - Login to hide

KJQF

Details ICAO KJQF
Name Concord Rgnl
Region United States
Timezone America/New_York (UTC-5.0)
Stats Elevation 690 ft / 210 m (AMSL)
Location 35.387774° -80.709133°
Runways 1
Magnetic Variation 7.872° W

METAR

KJQF 122150Z 31013G22KT 10SM CLR 09/M06 A2973

Decode

TAF

Not found

Departure Runways

ID Width Length Bearing (true) Bearing (mag) Surface Threshold Offset Overrun Length
02 98 ft / 30 m 7,419 ft / 2,261 m 10.42° 18.29° Asphalt 0 ft / 0 m 0 ft / 0 m
20 98 ft / 30 m 7,419 ft / 2,261 m 190.42° 198.29° Asphalt 650 ft / 198 m 0 ft / 0 m

KCHS

Details ICAO KCHS (CHS)
Name Charleston AFB Intl
Region United States
Timezone America/New_York (UTC-5.0)
Stats Elevation 45 ft / 14 m (AMSL)
Location 32.898080° -80.040556°
Runways 2
Magnetic Variation 7.890° W

METAR

KCHS 122156Z 29013G21KT 10SM CLR 14/01 A2974 RMK AO2 PK WND 30026/2130 SLP071 T01390006 $

Decode

TAF

TAF KCHS 121732Z 1218/1318 26012KT P6SM FEW250 FM121900 28014G22KT P6SM FEW250 FM130200 32008KT P6SM SKC FM131600 28006KT P6SM SKC

Decode

Destination Runways

ID Width Length Bearing (true) Bearing (mag) Surface Threshold Offset Overrun Length
03 150 ft / 46 m 7,019 ft / 2,140 m 24.30° 32.19° Asphalt 0 ft / 0 m 0 ft / 0 m
15 200 ft / 61 m 9,014 ft / 2,748 m 147.54° 155.43° Concrete 0 ft / 0 m 1,000 ft / 305 m
21 150 ft / 46 m 7,019 ft / 2,140 m 204.31° 212.20° Asphalt 0 ft / 0 m 0 ft / 0 m
33 200 ft / 61 m 9,014 ft / 2,748 m 327.55° 335.44° Concrete 0 ft / 0 m 1,000 ft / 305 m

Approach Navaids

Runway Type Ident Frequency Range Bearing (true) Bearing (mag) Slope Elevation
15 Localiser ICHS 109.70 MHz 18 nm / 33 km 147.54° 155.43° - 26 ft / 8 m (AMSL)
15 Glidescope ICHS 109.70 MHz 10 nm / 19 km 147.54° 155.43° 3.00° 37 ft / 11 m (AMSL)
33 Localiser ICCI 108.90 MHz 18 nm / 33 km 327.53° 335.42° - 44 ft / 13 m (AMSL)
33 Glidescope ICCI 108.90 MHz 10 nm / 19 km 327.54° 335.43° 3.00° 43 ft / 13 m (AMSL)

Popular Alternatives